Location: Taipo
(41.0000°S, 175.9500°E)
Time: 10:52:45
(UTC+00:00)

Cosmos 1867 - Pass Details

Date: 18 April 2024
Orbit: 772 x 802 km, 65.0° (Epoch: 24 May)

Event Time Altitude Azimuth Distance (km) Brightness Sun altitude
Exits shadow 16:41:49 18° 355° (N) 1,860 5.3 -24.9°
Maximum altitude 16:45:39 51° 64° (ENE) 992 4.3 -24.2°
Drops below altitude 10° 16:50:52 10° 138° (SE) 2,356 6.6 -23.2°
Sets 16:53:21 0° 143° (SE) 3,287 7.4 -22.7°
